This is the latest recevied weather packets stored in our database for station/object N5YHM-13. If no packets are shown the sender has not sent any weather packets the latest 10 day(s).
| Time | Temp. | Humidity | Pressure | Rain* | Wind** | Luminosity | Snow |
|---|---|---|---|---|---|---|---|
| 1778185574 | 24.44° C | 85% | 1015.3 hPa | 0 mm | - | 12 W/m² | - |
| 1778185270 | 24.44° C | 85% | 1015.2 hPa | 0 mm | - | 16 W/m² | - |
| 1778184965 | 24.44° C | 85% | 1015.2 hPa | 0 mm | - | 8 W/m² | - |
| 1778184663 | 24.44° C | 85% | 1015.4 hPa | 0 mm | - | 12 W/m² | - |
| 1778184358 | 25° C | 86% | 1015.5 hPa | 0 mm | - | 10 W/m² | - |
| 1778184054 | 25° C | 84% | 1015.6 hPa | 0 mm | - | 12 W/m² | - |
| 1778183752 | 25° C | 84% | 1015.7 hPa | 0 mm | - | 18 W/m² | - |
| 1778183449 | 25° C | 84% | 1015.5 hPa | 0 mm | - | 15 W/m² | - |
| 1778183145 | 25° C | 84% | 1015.4 hPa | 0 mm | - | 26 W/m² | - |
| 1778182841 | 25° C | 83% | 1015.6 hPa | 0 mm | - | 26 W/m² | - |
| 1778182538 | 25.56° C | 83% | 1015.8 hPa | 0 mm | - | 22 W/m² | - |
| 1778182235 | 25.56° C | 84% | 1015.7 hPa | 0 mm | - | 28 W/m² | - |
| 1778181931 | 25.56° C | 84% | 1015.7 hPa | 0 mm | - | 31 W/m² | - |
| 1778181628 | 25.56° C | 83% | 1015.6 hPa | 0 mm | - | 33 W/m² | - |
| 1778181323 | 25.56° C | 83% | 1015.6 hPa | 0 mm | - | 40 W/m² | - |
| 1778181021 | 25.56° C | 83% | 1015.3 hPa | 0 mm | - | 43 W/m² | - |
| 1778180718 | 25.56° C | 83% | 1015.7 hPa | 0 mm | - | 35 W/m² | - |
| 1778180417 | 25° C | 84% | 1015.6 hPa | 0 mm | - | 43 W/m² | - |
| 1778180115 | 25.56° C | 83% | 1015.7 hPa | 0 mm | - | 50 W/m² | - |
| 1778179811 | 25.56° C | 83% | 1015.8 hPa | 0 mm | - | 50 W/m² | - |
| 1778179509 | 25.56° C | 84% | 1015.7 hPa | 0 mm | - | 37 W/m² | - |
| 1778179207 | 25° C | 84% | 1015.7 hPa | 0 mm | - | 49 W/m² | - |
| 1778178902 | 25° C | 84% | 1015.8 hPa | 0 mm | - | 38 W/m² | - |
| 1778178600 | 24.44° C | 83% | 1015.7 hPa | 0 mm | - | 42 W/m² | - |
| 1778178296 | 24.44° C | 85% | 1015.9 hPa | 0 mm | - | 45 W/m² | - |
* Rain latest hour (hover to see other rain measurements)
** Current wind speed in m/s (hover to see current wind gust speed)